Regional Weather Roundup
Issued by NWS Charleston, SC

Current Version | Previous Version | Text Only | Print | Product List | Glossary On
Versions: 1 2 3 4 5 6 7 8 9 10 11 12 13 14 15 16 17 18 19 20 21 22 23 24 25 26 27 28 29 30 31 32 33 34 35 36 37 38 39 40 41 42 43 44 45 46 47 48 49 50
000
ASUS42 KCHS 240625
RWRCHS

REGIONAL WEATHER ROUNDUP
NATIONAL WEATHER SERVICE CHARLESTON SC
200 AM EDT FRI OCT 24 2014

NOTE: "FAIR" INDICATES FEW OR NO CLOUDS BELOW 12,000 FEET WITH NO
SIGNIFICANT WEATHER AND/OR OBSTRUCTIONS TO VISIBILITY.

NOT ALL STATIONS ARE QUALITY CONTROLLED BY THE NATIONAL
WEATHER SERVICE. USE DATA WITH CAUTION...ESPECIALLY
DEWPOINT OBSERVATIONS.

SCZ027-030-031-034>040-042>050-240700-
...SOUTH CAROLINA...

CITY           SKY/WX    TMP DP  RH WIND       PRES   REMARKS
N CHARLESTON   PTCLDY    51  47  86 CALM      30.03R
6HR MIN TEMP:  50; 6HR MAX TEMP:  60;

WATERFRONT PRK   N/A     59 N/A N/A CALM        N/A
FORT JOHNSON   NOT AVBL
JOHNS ISLAND   CLEAR     48  48 100 CALM      30.02F
PINOPOLIS      NOT AVBL
MONCKS CORNER  FAIR      46  46 100 CALM      30.03R
SUMMERVILLE    FAIR      45  45 100 CALM      30.04R
BEAUFORT MCAS  PTCLDY    50  47  89 CALM      30.02F
6HR MIN TEMP:  49; 6HR MAX TEMP:  57;

BEAUFORT ARPT  FAIR      54  54 100 CALM      30.01F
HILTON HEAD IS   N/A     52  52 100 CALM      30.03F
GEORGETOWN     NOT AVBL
WALTERBORO     PTCLDY    43 N/A N/A N3        30.03S
ORANGEBURG     PTCLDY    49  45  86 CALM      30.03F
6HR MIN TEMP:  46; 6HR MAX TEMP:  56;

BARNWELL       FAIR      45  43  93 CALM      30.04F
AIKEN          FAIR      46  43  87 CALM      30.06F
MANNING        FAIR      45 N/A N/A CALM      30.03S
KINGSTREE      NOT AVBL
COLUMBIA       PTCLDY    48  43  82 W3        30.03S
6HR MIN TEMP:  47; 6HR MAX TEMP:  56;

SUMTER         CLEAR     49  45  86 N5        30.03R
6HR MIN TEMP:  46; 6HR MAX TEMP:  56; 6HR PCP: TRACE;

FLORENCE       CLEAR     50  43  77 NW3       30.03S
6HR MIN TEMP:  47; 6HR MAX TEMP:  57;

MYRTLE BEACH   CLEAR     52  45  76 N5        30.01F
N MYRTLE BEACH CLEAR     52  45  77 NW6       30.01S
6HR MIN TEMP:  52; 6HR MAX TEMP:  58;


$$

GAZ063-065-086>088-099>101-113>116-118-119-134-136>141-150-240700-
...GEORGIA...

CITY           SKY/WX    TMP DP  RH WIND       PRES   REMARKS
SAVANNAH ARPT  CLOUDY    52  48  86 CALM      30.03F
6HR MIN TEMP:  50; 6HR MAX TEMP:  60;

HUNTER AAF     CLOUDY    51  49  92 CALM      30.01F
6HR MIN TEMP:  49; 6HR MAX TEMP:  56;

FORT STEWART   CLOUDY    47  45  91 CALM      30.02F
6HR MIN TEMP:  47; 6HR MAX TEMP:  56;

STATESBORO     NOT AVBL
SYLVANIA       PTCLDY    50  49  97 CALM      30.03F
CLAXTON        FAIR      46  46 100 CALM      30.04R
THOMSON        MOCLDY    47  47 100 CALM      30.08S
AUGUSTA-BUSH   MOCLDY    45  42  89 CALM      30.04F
6HR MIN TEMP:  43; 6HR MAX TEMP:  54;

AUGUSTA-DANIEL MOCLDY    56  45  66 CALM      30.04S
SWAINSBORO     FAIR      46  46 100 MISG      30.03F
VIDALIA        MOCLDY    50  46  87 CALM      30.04S
ALMA           CLOUDY    47  46  97 CALM      30.03S
6HR MIN TEMP:  46; 6HR MAX TEMP:  55;

WAYCROSS       MOCLDY    51  50  97 CALM      30.03F
JESUP          FAIR      46  45  93 CALM      30.03F
BRUNSWICK      PTCLDY    50  46  87 CALM      30.03S
SAINT SIMONS   CLEAR     52  51  97 CALM      30.02F
6HR MIN TEMP:  52; 6HR MAX TEMP:  62;


$$

SCZ027-028-034-036>038-045-046-048>050-GAZ119-141-240700-
...LAKE AND SUPPLEMENTAL COASTAL OBSERVATIONS...

STATION/POSITION TIME  TEMP    WIND        PRES    WAVE   SWELL
                       AIR SEA DIR/SP/G            HT/PER HT/PER/DIR
                 (UTC) (F)     (DEG/KT/KT) (MB)    (FT/S) (FT/S/D)
UPR LAKE MARION  NOT AVBL
WINYAH BAY       0600   53     300/  4     1016.0S
LAKE MURRAY      0500   57      CALM  /  3 1016.6S
ACE BASIN NERRS  0600   51        CALM     1016.0S
FORT PULASKI     0600   62     300/  4/  4 1016.7S
SAPELO ISLAND    NOT AVBL

$$

ANZ835-935-AMZ111-154-330-350-352-354-374-450-454-472-240700-
...C-MAN AND BUOY OBSERVATIONS...

STATION/POSITION TIME  TEMP    WIND        PRES    WAVE   SWELL
                       AIR SEA DIR/SP/G            HT/PER HT/PER/DIR
                 (UTC) (F)     (DEG/KT/KT) (MB)    (FT/S) (FT/S/D)
FOLLY BEACH CMAN 0600   55     310/  4/  5 1016.9F
BUOY 41004       0600   68 78  350/ 12/ 14 1015.8F   3/11   3/11
BUOY 41008       0600   68 75   20/  8/ 12 1016.5F   2/ 9   2/ 90/ 9
5E ST. MARYS GA  0600      76                N/A     2/10
FRYING PAN BUOY  0600   67 74  320/ 14/ 16 1016.4F   3/11   2/100/11
BUOY 41025       0600   64     310/ 17/ 19 1013.8F   4/ 5   2/ 30/ 8
CAPE LOOKOUT NC  0600   60     340/ 10/ 11 1014.7F
BUOY 41002       0534   71 78  300/ 14/ 16 1015.0F   6/10   5/ 10/10
BUOY 41010       0600   74 81   30/  6/  8 1015.5F   3/ 9   3/ 60/ 9
BUOY 41012       NOT AVBL
ST AUGUSTINE FL  0600   69      50/  7/  9 1017.1F
CAPERS NEARSHORE NOT AVBL
FRIPP NEARSHORE  NOT AVBL


$$



USA.gov is the U.S. government's official web portal to all federal, state and local government web resources and services.